TimeCET,TemperatureF,Dew PointF,Humidity,Sea Level PressureIn,VisibilityMPH,Wind Direction,Wind SpeedMPH,Gust SpeedMPH,PrecipitationIn,Events,Conditions,WindDirDegrees,DateUTC
12:15 AM,35.6,35.6,100,30.18,0.3,North,2.2,-,N/A,Fog,Fog,350,2012-11-09 23:15:00
12:45 AM,33.8,32.0,93,30.18,0.1,NNW,2.2,-,N/A,Fog,Fog,330,2012-11-09 23:45:00
1:15 AM,32.0,32.0,100,30.18,0.1,NNW,2.2,-,N/A,Fog,Fog,330,2012-11-10 00:15:00
1:45 AM,33.8,33.8,100,30.18,0.1,NW,4.5,-,N/A,Fog,Fog,320,2012-11-10 00:45:00
2:15 AM,33.8,32.0,93,30.18,0.1,Calm,Calm,-,N/A,Fog,Fog,0,2012-11-10 01:15:00
2:45 AM,32.0,32.0,100,30.18,0.1,Calm,Calm,-,N/A,Fog,Light Freezing Fog,0,2012-11-10 01:45:00
3:15 AM,32.0,30.2,93,30.18,0.1,Calm,Calm,-,N/A,Fog,Fog,0,2012-11-10 02:15:00
3:45 AM,32.0,30.2,93,30.18,0.1,Calm,Calm,-,N/A,Fog,Light Freezing Fog,0,2012-11-10 02:45:00
4:15 AM,30.2,30.2,100,30.15,0.1,Calm,Calm,-,N/A,Fog,Light Freezing Fog,0,2012-11-10 03:15:00
4:45 AM,32.0,30.2,93,30.18,0.1,Calm,Calm,-,N/A,Fog,Light Freezing Fog,0,2012-11-10 03:45:00
5:15 AM,32.0,32.0,100,30.18,0.1,NW,2.2,-,N/A,Fog,Fog,320,2012-11-10 04:15:00
5:45 AM,-9999,-9999,N/A,-9999,0.9,Variable,4.5,-,N/A,Fog,Fog,0,2012-11-10 04:45:00
6:15 AM,33.8,32.0,93,30.18,0.1,East,2.2,-,N/A,Fog,Fog,90,2012-11-10 05:15:00
6:45 AM,32.0,32.0,100,30.18,0.1,East,4.5,-,N/A,Fog,Fog,100,2012-11-10 05:45:00
7:15 AM,33.8,32.0,93,30.18,0.1,ESE,4.5,-,N/A,Fog,Fog,110,2012-11-10 06:15:00
7:45 AM,33.8,32.0,93,30.18,0.1,East,4.5,-,N/A,Fog,Fog,100,2012-11-10 06:45:00
8:15 AM,33.8,33.8,100,30.18,0.1,ESE,6.7,-,N/A,Fog,Fog,110,2012-11-10 07:15:00
8:45 AM,-9999,-9999,N/A,-9999,0.5,SE,8.9,-,N/A,Fog,Fog,130,2012-11-10 07:45:00
9:00 AM,-9999,-9999,N/A,-9999,0.5,ESE,8.9,-,N/A,Fog,Fog,120,2012-11-10 08:00:00
9:15 AM,35.6,35.6,100,30.21,0.1,ESE,6.7,-,N/A,Fog,Fog,120,2012-11-10 08:15:00
9:45 AM,37.4,35.6,93,30.21,0.1,ESE,6.7,-,N/A,Fog,Fog,120,2012-11-10 08:45:00
10:15 AM,37.4,37.4,100,30.21,0.2,SE,6.7,-,N/A,Fog,Fog,140,2012-11-10 09:15:00
10:45 AM,39.2,37.4,93,30.21,0.2,SE,6.7,-,N/A,Fog,Fog,140,2012-11-10 09:45:00
11:15 AM,41.0,39.2,93,30.18,0.2,SE,8.9,-,N/A,Fog,Fog,130,2012-11-10 10:15:00
11:45 AM,-9999,-9999,N/A,-9999,0.9,SSE,8.9,-,N/A,,Mostly Cloudy,150,2012-11-10 10:45:00
12:15 PM,41.0,41.0,100,30.18,0.4,ESE,11.2,-,N/A,Fog,Fog,110,2012-11-10 11:15:00
12:23 PM,41.0,41.0,100,30.18,0.5,SSE,11.2,-,N/A,Fog,Fog,150,2012-11-10 11:23:00
12:45 PM,42.8,41.0,93,30.18,0.6,SE,8.9,-,N/A,,Overcast,130,2012-11-10 11:45:00
1:00 PM,-9999,-9999,N/A,-9999,0.9,SSE,8.9,-,N/A,,Overcast,150,2012-11-10 12:00:00
1:15 PM,42.8,41.0,93,30.18,0.7,SSE,8.9,-,N/A,,Overcast,150,2012-11-10 12:15:00
2:15 PM,42.8,42.8,100,30.15,0.9,SE,8.9,-,N/A,,Overcast,140,2012-11-10 13:15:00
2:45 PM,-9999,-9999,N/A,-9999,0.9,SE,8.9,-,N/A,,Mostly Cloudy,130,2012-11-10 13:45:00
3:00 PM,-9999,-9999,N/A,-9999,0.9,SE,8.9,-,N/A,,Mostly Cloudy,140,2012-11-10 14:00:00
3:15 PM,44.6,42.8,93,30.15,1.2,SE,8.9,-,N/A,,Overcast,140,2012-11-10 14:15:00
3:45 PM,44.6,42.8,93,30.12,1.9,SSE,8.9,-,N/A,,Overcast,150,2012-11-10 14:45:00
4:15 PM,44.6,42.8,93,30.15,1.9,SSE,4.5,-,N/A,,Overcast,150,2012-11-10 15:15:00
4:45 PM,44.6,42.8,93,30.12,1.9,SE,4.5,-,N/A,,Overcast,140,2012-11-10 15:45:00
5:15 PM,44.6,42.8,93,30.12,1.9,East,4.5,-,N/A,,Overcast,100,2012-11-10 16:15:00
5:45 PM,-9999,-9999,N/A,-9999,1.9,ESE,6.7,-,N/A,Fog,Fog,120,2012-11-10 16:45:00
6:15 PM,42.8,41.0,93,30.12,1.9,East,6.7,-,N/A,,Overcast,90,2012-11-10 17:15:00
6:45 PM,42.8,41.0,93,30.12,1.9,East,6.7,-,N/A,,Mostly Cloudy,90,2012-11-10 17:45:00
7:15 PM,41.0,41.0,100,30.12,1.2,East,6.7,-,N/A,,Scattered Clouds,80,2012-11-10 18:15:00
7:45 PM,41.0,39.2,93,30.12,1.9,East,6.7,-,N/A,,Scattered Clouds,90,2012-11-10 18:45:00
8:15 PM,41.0,41.0,100,30.12,1.9,East,6.7,-,N/A,,Scattered Clouds,100,2012-11-10 19:15:00
8:45 PM,-9999,-9999,N/A,-9999,1.9,ESE,6.7,-,N/A,Fog,Fog,110,2012-11-10 19:45:00
9:15 PM,41.0,39.2,93,30.12,1.9,East,4.5,-,N/A,,Partly Cloudy,100,2012-11-10 20:15:00
9:45 PM,39.2,37.4,93,30.12,1.9,East,4.5,-,N/A,,Partly Cloudy,100,2012-11-10 20:45:00
10:15 PM,39.2,37.4,93,30.12,1.9,East,4.5,-,N/A,,Partly Cloudy,90,2012-11-10 21:15:00
10:45 PM,39.2,37.4,93,30.12,1.9,East,4.5,-,N/A,,Partly Cloudy,90,2012-11-10 21:45:00
11:15 PM,37.4,35.6,93,30.12,1.9,East,6.7,-,N/A,,Partly Cloudy,80,2012-11-10 22:15:00
11:45 PM,-9999,-9999,N/A,-9999,1.9,North,-9999.0,-,N/A,Fog,Fog,0,2012-11-10 22:45:00